Torna al catalogo

DELTA 1 DEB

AttivoSSO
NORAD 7191·DEBRIS·🇺🇸 United States

Lanciato Nov 6, 1973 da Vandenberg Space Force Base

Loading…

Prossimi Passaggi (prossime 24 ore)

TLE

AggiornatoSource: Space-Track

Epoca: Sep 14, 2026, 04:21 UTC

1 07191U 73086EZ  26257.18161148 -.00000394  00000-0 -33747-2 0  9998
2 07191 102.1307 138.3666 0243481 195.5225 320.5837 12.13270768906828

Traccia DELTA 1 DEB in tempo reale con AllMySat

Download on the App Store